Time,TemperatureF,DewpointF,PressureIn,WindDirection,WindDirectionDegrees,WindSpeedMPH,WindSpeedGustMPH,Humidity,HourlyPrecipIn,Conditions,Clouds,dailyrainin,SoftwareType,DateUTC
2013-04-30 00:02:00,49.0,-99.9,29.93,West,276,8.0,12.0,-999,-99.99,,,-99.99,,2013-04-30 07:02:00,
2013-04-30 00:11:00,49.0,-99.9,29.93,WNW,284,8.0,12.0,-999,-99.99,,,-99.99,,2013-04-30 07:11:00,
2013-04-30 00:21:00,49.0,-99.9,29.94,West,276,5.0,10.0,-999,-99.99,,,-99.99,,2013-04-30 07:21:00,
2013-04-30 00:32:00,49.0,-99.9,29.93,WNW,282,6.0,9.0,-999,-99.99,,,-99.99,,2013-04-30 07:32:00,
2013-04-30 00:42:00,49.0,-99.9,29.94,WNW,287,6.0,9.0,-999,-99.99,,,-99.99,,2013-04-30 07:42:00,
2013-04-30 00:52:00,49.0,-99.9,29.94,WNW,293,6.0,11.0,-999,-99.99,,,-99.99,,2013-04-30 07:52:00,
2013-04-30 01:02:00,49.0,-99.9,29.94,WNW,282,7.0,13.0,-999,-99.99,,,-99.99,,2013-04-30 08:02:00,
2013-04-30 01:11:00,49.0,-99.9,29.94,WNW,282,7.0,14.0,-999,-99.99,,,-99.99,,2013-04-30 08:11:00,
2013-04-30 01:22:00,49.0,-99.9,29.94,WNW,285,8.0,14.0,-999,-99.99,,,-99.99,,2013-04-30 08:22:00,
2013-04-30 01:32:00,48.0,-99.9,29.94,WNW,286,9.0,12.0,-999,-99.99,,,-99.99,,2013-04-30 08:32:00,
2013-04-30 01:42:00,48.0,-99.9,29.94,West,281,8.0,12.0,-999,-99.99,,,-99.99,,2013-04-30 08:42:00,
2013-04-30 01:52:00,48.0,-99.9,29.94,WNW,291,6.0,11.0,-999,-99.99,,,-99.99,,2013-04-30 08:52:00,
2013-04-30 02:02:00,48.0,-99.9,29.94,WNW,293,8.0,15.0,-999,-99.99,,,-99.99,,2013-04-30 09:02:00,
2013-04-30 02:11:00,48.0,-99.9,29.93,WNW,299,8.0,11.0,-999,-99.99,,,-99.99,,2013-04-30 09:11:00,
2013-04-30 02:22:00,48.0,-99.9,29.93,West,277,5.0,8.0,-999,-99.99,,,-99.99,,2013-04-30 09:22:00,
2013-04-30 02:33:00,48.0,-99.9,29.93,NW,306,5.0,9.0,-999,-99.99,,,-99.99,,2013-04-30 09:33:00,
2013-04-30 02:43:00,48.0,-99.9,29.92,WNW,291,6.0,9.0,-999,-99.99,,,-99.99,,2013-04-30 09:43:00,
2013-04-30 02:52:00,48.0,-99.9,29.92,WNW,298,6.0,10.0,-999,-99.99,,,-99.99,,2013-04-30 09:52:00,
2013-04-30 03:03:00,48.0,-99.9,29.92,WNW,286,8.0,13.0,-999,-99.99,,,-99.99,,2013-04-30 10:03:00,
2013-04-30 03:12:00,48.0,-99.9,29.92,WNW,293,8.0,13.0,-999,-99.99,,,-99.99,,2013-04-30 10:12:00,
2013-04-30 03:22:00,48.0,-99.9,29.92,WNW,287,9.0,17.0,-999,-99.99,,,-99.99,,2013-04-30 10:22:00,
2013-04-30 03:32:00,48.0,-99.9,29.92,WNW,284,6.0,12.0,-999,-99.99,,,-99.99,,2013-04-30 10:32:00,
2013-04-30 03:41:00,48.0,-99.9,29.92,West,276,5.0,12.0,-999,-99.99,,,-99.99,,2013-04-30 10:41:00,
2013-04-30 03:52:00,48.0,-99.9,29.92,WNW,292,6.0,13.0,-999,-99.99,,,-99.99,,2013-04-30 10:52:00,
2013-04-30 04:02:00,48.0,-99.9,29.92,WNW,298,7.0,15.0,-999,-99.99,,,-99.99,,2013-04-30 11:02:00,
2013-04-30 04:11:00,48.0,-99.9,29.92,WNW,285,9.0,15.0,-999,-99.99,,,-99.99,,2013-04-30 11:11:00,
2013-04-30 04:21:00,48.0,-99.9,29.92,WNW,289,7.0,14.0,-999,-99.99,,,-99.99,,2013-04-30 11:21:00,
2013-04-30 04:32:00,48.0,-99.9,29.92,WNW,291,6.0,12.0,-999,-99.99,,,-99.99,,2013-04-30 11:32:00,
2013-04-30 04:42:00,48.0,-99.9,29.92,WNW,287,7.0,11.0,-999,-99.99,,,-99.99,,2013-04-30 11:42:00,
2013-04-30 04:52:00,48.0,-99.9,29.92,NW,305,7.0,15.0,-999,-99.99,,,-99.99,,2013-04-30 11:52:00,
2013-04-30 05:01:00,48.0,-99.9,29.92,WSW,245,3.0,12.0,-999,-99.99,,,-99.99,,2013-04-30 12:01:00,
2013-04-30 05:11:00,48.0,-99.9,29.91,WNW,285,5.0,10.0,-999,-99.99,,,-99.99,,2013-04-30 12:11:00,
2013-04-30 05:22:00,48.0,-99.9,29.91,WNW,282,7.0,11.0,-999,-99.99,,,-99.99,,2013-04-30 12:22:00,
2013-04-30 05:31:00,48.0,-99.9,29.91,WNW,289,8.0,15.0,-999,-99.99,,,-99.99,,2013-04-30 12:31:00,
2013-04-30 05:42:00,48.0,-99.9,29.91,WNW,286,9.0,15.0,-999,-99.99,,,-99.99,,2013-04-30 12:42:00,
2013-04-30 05:51:00,48.0,-99.9,29.91,WNW,290,9.0,15.0,-999,-99.99,,,-99.99,,2013-04-30 12:51:00,
2013-04-30 06:01:00,48.0,-99.9,29.91,WNW,288,11.0,16.0,-999,-99.99,,,-99.99,,2013-04-30 13:01:00,
2013-04-30 06:11:00,48.0,-99.9,29.91,WNW,282,9.0,12.0,-999,-99.99,,,-99.99,,2013-04-30 13:11:00,
2013-04-30 06:21:00,48.0,-99.9,29.91,WNW,286,7.0,14.0,-999,-99.99,,,-99.99,,2013-04-30 13:21:00,
2013-04-30 06:31:00,48.0,-99.9,29.91,WNW,282,9.0,13.0,-999,-99.99,,,-99.99,,2013-04-30 13:31:00,
2013-04-30 06:41:00,48.0,-99.9,29.92,WNW,288,6.0,16.0,-999,-99.99,,,-99.99,,2013-04-30 13:41:00,
2013-04-30 06:52:00,48.0,-99.9,29.92,West,274,6.0,12.0,-999,-99.99,,,-99.99,,2013-04-30 13:52:00,
2013-04-30 07:02:00,47.0,-99.9,29.93,West,267,5.0,8.0,-999,-99.99,,,-99.99,,2013-04-30 14:02:00,
2013-04-30 07:11:00,47.0,-99.9,29.93,WNW,298,6.0,12.0,-999,-99.99,,,-99.99,,2013-04-30 14:11:00,
2013-04-30 07:21:00,47.0,-99.9,29.94,West,279,6.0,13.0,-999,-99.99,,,-99.99,,2013-04-30 14:21:00,
2013-04-30 07:31:00,47.0,-99.9,29.93,WNW,289,4.0,11.0,-999,-99.99,,,-99.99,,2013-04-30 14:31:00,
2013-04-30 07:41:00,48.0,-99.9,29.94,WNW,286,6.0,10.0,-999,-99.99,,,-99.99,,2013-04-30 14:41:00,
2013-04-30 07:52:00,48.0,-99.9,29.95,WNW,287,4.0,9.0,-999,-99.99,,,-99.99,,2013-04-30 14:52:00,
2013-04-30 08:02:00,48.0,-99.9,29.95,West,266,6.0,12.0,-999,-99.99,,,-99.99,,2013-04-30 15:02:00,
2013-04-30 08:11:00,48.0,-99.9,29.95,WNW,290,8.0,12.0,-999,-99.99,,,-99.99,,2013-04-30 15:11:00,
2013-04-30 08:21:00,48.0,-99.9,29.95,West,279,6.0,11.0,-999,-99.99,,,-99.99,,2013-04-30 15:21:00,
2013-04-30 08:32:00,49.0,-99.9,29.96,WNW,287,6.0,12.0,-999,-99.99,,,-99.99,,2013-04-30 15:32:00,
2013-04-30 08:42:00,49.0,-99.9,29.96,WNW,288,7.0,11.0,-999,-99.99,,,-99.99,,2013-04-30 15:42:00,
2013-04-30 08:53:00,49.0,-99.9,29.96,West,278,5.0,11.0,-999,-99.99,,,-99.99,,2013-04-30 15:53:00,
2013-04-30 09:02:00,49.0,-99.9,29.96,WNW,283,7.0,13.0,-999,-99.99,,,-99.99,,2013-04-30 16:02:00,
2013-04-30 09:13:00,49.0,-99.9,29.96,WNW,300,7.0,14.0,-999,-99.99,,,-99.99,,2013-04-30 16:13:00,
2013-04-30 09:23:00,49.0,-99.9,29.96,WNW,287,7.0,16.0,-999,-99.99,,,-99.99,,2013-04-30 16:23:00,
2013-04-30 09:33:00,50.0,-99.9,29.96,WNW,293,7.0,13.0,-999,-99.99,,,-99.99,,2013-04-30 16:33:00,
2013-04-30 09:42:00,50.0,-99.9,29.96,WNW,290,7.0,17.0,-999,-99.99,,,-99.99,,2013-04-30 16:42:00,
2013-04-30 09:53:00,50.0,-99.9,29.96,WNW,287,9.0,13.0,-999,-99.99,,,-99.99,,2013-04-30 16:53:00,
2013-04-30 10:02:00,50.0,-99.9,29.97,WNW,286,7.0,17.0,-999,-99.99,,,-99.99,,2013-04-30 17:02:00,
2013-04-30 10:12:00,50.0,-99.9,29.97,WNW,289,7.0,14.0,-999,-99.99,,,-99.99,,2013-04-30 17:12:00,
2013-04-30 10:22:00,50.0,-99.9,29.97,WNW,290,9.0,15.0,-999,-99.99,,,-99.99,,2013-04-30 17:22:00,
2013-04-30 10:32:00,51.0,-99.9,29.97,WNW,290,12.0,17.0,-999,-99.99,,,-99.99,,2013-04-30 17:32:00,
2013-04-30 10:42:00,51.0,-99.9,29.97,WNW,290,12.0,15.0,-999,-99.99,,,-99.99,,2013-04-30 17:42:00,
2013-04-30 10:53:00,51.0,-99.9,29.97,WNW,284,10.0,19.0,-999,-99.99,,,-99.99,,2013-04-30 17:53:00,
2013-04-30 11:01:00,51.0,-99.9,29.97,West,280,11.0,16.0,-999,-99.99,,,-99.99,,2013-04-30 18:01:00,
2013-04-30 11:11:00,51.0,-99.9,29.97,WNW,286,12.0,18.0,-999,-99.99,,,-99.99,,2013-04-30 18:11:00,
2013-04-30 11:22:00,51.0,-99.9,29.98,WNW,286,11.0,17.0,-999,-99.99,,,-99.99,,2013-04-30 18:22:00,
2013-04-30 11:32:00,51.0,-99.9,29.98,WNW,286,12.0,18.0,-999,-99.99,,,-99.99,,2013-04-30 18:32:00,
2013-04-30 11:42:00,51.0,-99.9,29.98,WNW,293,12.0,20.0,-999,-99.99,,,-99.99,,2013-04-30 18:42:00,
2013-04-30 11:52:00,51.0,-99.9,29.98,WNW,294,12.0,22.0,-999,-99.99,,,-99.99,,2013-04-30 18:52:00,
2013-04-30 12:02:00,51.0,-99.9,29.98,WNW,290,9.0,18.0,-999,-99.99,,,-99.99,,2013-04-30 19:02:00,
2013-04-30 12:11:00,51.0,-99.9,29.98,WNW,302,14.0,22.0,-999,-99.99,,,-99.99,,2013-04-30 19:11:00,
2013-04-30 12:22:00,51.0,-99.9,29.98,NW,308,10.0,19.0,-999,-99.99,,,-99.99,,2013-04-30 19:22:00,
2013-04-30 12:32:00,52.0,-99.9,29.99,WNW,299,6.0,11.0,-999,-99.99,,,-99.99,,2013-04-30 19:32:00,
2013-04-30 12:42:00,52.0,-99.9,29.99,NW,326,5.0,10.0,-999,-99.99,,,-99.99,,2013-04-30 19:42:00,
2013-04-30 12:52:00,52.0,-99.9,29.99,WNW,303,8.0,13.0,-999,-99.99,,,-99.99,,2013-04-30 19:52:00,
2013-04-30 13:02:00,52.0,-99.9,29.98,WNW,301,7.0,18.0,-999,-99.99,,,-99.99,,2013-04-30 20:02:00,
2013-04-30 13:11:00,52.0,-99.9,29.98,West,275,6.0,10.0,-999,-99.99,,,-99.99,,2013-04-30 20:11:00,
2013-04-30 13:22:00,52.0,-99.9,29.98,West,266,5.0,10.0,-999,-99.99,,,-99.99,,2013-04-30 20:22:00,
2013-04-30 13:32:00,53.0,-99.9,29.98,NW,324,4.0,14.0,-999,-99.99,,,-99.99,,2013-04-30 20:32:00,
2013-04-30 13:42:00,53.0,-99.9,29.98,WNW,301,6.0,12.0,-999,-99.99,,,-99.99,,2013-04-30 20:42:00,
2013-04-30 13:52:00,53.0,-99.9,29.98,WNW,294,7.0,14.0,-999,-99.99,,,-99.99,,2013-04-30 20:52:00,
2013-04-30 14:02:00,52.0,-99.9,29.98,WNW,301,9.0,18.0,-999,-99.99,,,-99.99,,2013-04-30 21:02:00,
2013-04-30 14:11:00,53.0,-99.9,29.98,WNW,291,7.0,15.0,-999,-99.99,,,-99.99,,2013-04-30 21:11:00,
2013-04-30 14:22:00,53.0,-99.9,29.98,WNW,287,5.0,18.0,-999,-99.99,,,-99.99,,2013-04-30 21:22:00,
2013-04-30 14:32:00,54.0,-99.9,29.98,NW,311,8.0,14.0,-999,-99.99,,,-99.99,,2013-04-30 21:32:00,
2013-04-30 14:42:00,54.0,-99.9,29.98,NW,305,10.0,15.0,-999,-99.99,,,-99.99,,2013-04-30 21:42:00,
2013-04-30 14:53:00,54.0,-99.9,29.98,NW,305,10.0,15.0,-999,-99.99,,,-99.99,,2013-04-30 21:53:00,
2013-04-30 15:03:00,55.0,-99.9,29.97,WNW,298,6.0,13.0,-999,-99.99,,,-99.99,,2013-04-30 22:03:00,
2013-04-30 15:12:00,54.0,-99.9,29.97,NNW,327,4.0,16.0,-999,-99.99,,,-99.99,,2013-04-30 22:12:00,
2013-04-30 15:23:00,54.0,-99.9,29.97,WNW,287,9.0,13.0,-999,-99.99,,,-99.99,,2013-04-30 22:23:00,
2013-04-30 15:33:00,54.0,-99.9,29.96,WNW,291,11.0,21.0,-999,-99.99,,,-99.99,,2013-04-30 22:33:00,
2013-04-30 15:42:00,54.0,-99.9,29.96,NW,309,11.0,22.0,-999,-99.99,,,-99.99,,2013-04-30 22:42:00,
2013-04-30 15:53:00,54.0,-99.9,29.96,WNW,303,8.0,17.0,-999,-99.99,,,-99.99,,2013-04-30 22:53:00,
2013-04-30 16:03:00,54.0,-99.9,29.95,WNW,296,11.0,24.0,-999,-99.99,,,-99.99,,2013-04-30 23:03:00,
2013-04-30 16:12:00,55.0,-99.9,29.94,WNW,286,9.0,20.0,-999,-99.99,,,-99.99,,2013-04-30 23:12:00,
2013-04-30 16:22:00,55.0,-99.9,29.94,WNW,289,14.0,20.0,-999,-99.99,,,-99.99,,2013-04-30 23:22:00,
2013-04-30 16:32:00,55.0,-99.9,29.93,WNW,291,11.0,20.0,-999,-99.99,,,-99.99,,2013-04-30 23:32:00,
2013-04-30 16:42:00,55.0,-99.9,29.93,NW,308,6.0,21.0,-999,-99.99,,,-99.99,,2013-04-30 23:42:00,
2013-04-30 16:52:00,55.0,-99.9,29.93,WNW,290,9.0,19.0,-999,-99.99,,,-99.99,,2013-04-30 23:52:00,
2013-04-30 17:02:00,55.0,-99.9,29.93,WNW,297,10.0,14.0,-999,-99.99,,,-99.99,,2013-05-01 00:02:00,
2013-04-30 17:11:00,54.0,-99.9,29.93,WNW,282,11.0,20.0,-999,-99.99,,,-99.99,,2013-05-01 00:11:00,
2013-04-30 17:22:00,54.0,-99.9,29.93,WNW,288,12.0,16.0,-999,-99.99,,,-99.99,,2013-05-01 00:22:00,
2013-04-30 17:32:00,54.0,-99.9,29.93,WNW,291,9.0,18.0,-999,-99.99,,,-99.99,,2013-05-01 00:32:00,
2013-04-30 17:42:00,54.0,-99.9,29.93,WNW,297,8.0,15.0,-999,-99.99,,,-99.99,,2013-05-01 00:42:00,
2013-04-30 17:52:00,54.0,-99.9,29.93,WNW,290,8.0,15.0,-999,-99.99,,,-99.99,,2013-05-01 00:52:00,
2013-04-30 18:01:00,54.0,-99.9,29.93,WNW,292,11.0,18.0,-999,-99.99,,,-99.99,,2013-05-01 01:01:00,
2013-04-30 18:11:00,54.0,-99.9,29.93,NW,307,9.0,14.0,-999,-99.99,,,-99.99,,2013-05-01 01:11:00,
2013-04-30 18:21:00,54.0,-99.9,29.93,WNW,296,8.0,16.0,-999,-99.99,,,-99.99,,2013-05-01 01:21:00,
2013-04-30 18:32:00,54.0,-99.9,29.93,WNW,285,7.0,13.0,-999,-99.99,,,-99.99,,2013-05-01 01:32:00,
2013-04-30 18:42:00,54.0,-99.9,29.94,NE,43,4.0,13.0,-999,-99.99,,,-99.99,,2013-05-01 01:42:00,
2013-04-30 18:52:00,54.0,-99.9,29.94,NE,55,3.0,11.0,-999,-99.99,,,-99.99,,2013-05-01 01:52:00,
2013-04-30 19:02:00,53.0,-99.9,29.94,WNW,292,4.0,11.0,-999,-99.99,,,-99.99,,2013-05-01 02:02:00,
2013-04-30 19:11:00,53.0,-99.9,29.94,SE,132,3.0,11.0,-999,-99.99,,,-99.99,,2013-05-01 02:11:00,
2013-04-30 19:22:00,53.0,-99.9,29.94,East,94,4.0,10.0,-999,-99.99,,,-99.99,,2013-05-01 02:22:00,
2013-04-30 19:32:00,53.0,-99.9,29.94,SW,215,3.0,10.0,-999,-99.99,,,-99.99,,2013-05-01 02:32:00,
2013-04-30 19:42:00,53.0,-99.9,29.94,NNW,346,5.0,15.0,-999,-99.99,,,-99.99,,2013-05-01 02:42:00,
2013-04-30 19:52:00,52.0,-99.9,29.94,NNE,18,4.0,12.0,-999,-99.99,,,-99.99,,2013-05-01 02:52:00,
2013-04-30 20:02:00,52.0,-99.9,29.94,ESE,109,2.0,9.0,-999,-99.99,,,-99.99,,2013-05-01 03:02:00,
2013-04-30 20:11:00,52.0,-99.9,29.95,ESE,109,3.0,8.0,-999,-99.99,,,-99.99,,2013-05-01 03:11:00,
2013-04-30 20:22:00,52.0,-99.9,29.95,SSE,149,2.0,9.0,-999,-99.99,,,-99.99,,2013-05-01 03:22:00,
2013-04-30 20:33:00,52.0,-99.9,29.95,SE,127,3.0,11.0,-999,-99.99,,,-99.99,,2013-05-01 03:33:00,
2013-04-30 20:43:00,52.0,-99.9,29.94,SSW,207,3.0,9.0,-999,-99.99,,,-99.99,,2013-05-01 03:43:00,
2013-04-30 20:53:00,52.0,-99.9,29.95,WNW,291,6.0,13.0,-999,-99.99,,,-99.99,,2013-05-01 03:53:00,
2013-04-30 21:03:00,51.0,-99.9,29.95,NNW,335,6.0,13.0,-999,-99.99,,,-99.99,,2013-05-01 04:03:00,
2013-04-30 21:12:00,51.0,-99.9,29.94,SSE,157,4.0,10.0,-999,-99.99,,,-99.99,,2013-05-01 04:12:00,
2013-04-30 21:23:00,52.0,-99.9,29.94,ESE,119,3.0,8.0,-999,-99.99,,,-99.99,,2013-05-01 04:23:00,
2013-04-30 21:32:00,52.0,-99.9,29.96,East,98,4.0,6.0,-999,-99.99,,,-99.99,,2013-05-01 04:32:00,
2013-04-30 21:43:00,52.0,-99.9,29.96,WNW,298,4.0,10.0,-999,-99.99,,,-99.99,,2013-05-01 04:43:00,
2013-04-30 21:52:00,52.0,-99.9,29.95,WNW,293,7.0,14.0,-999,-99.99,,,-99.99,,2013-05-01 04:52:00,
2013-04-30 22:02:00,52.0,-99.9,29.95,WNW,291,8.0,14.0,-999,-99.99,,,-99.99,,2013-05-01 05:02:00,
2013-04-30 22:12:00,52.0,-99.9,29.95,WNW,292,6.0,15.0,-999,-99.99,,,-99.99,,2013-05-01 05:12:00,
2013-04-30 22:22:00,52.0,-99.9,29.96,NNW,333,4.0,9.0,-999,-99.99,,,-99.99,,2013-05-01 05:22:00,
2013-04-30 22:32:00,52.0,-99.9,29.96,WNW,293,7.0,14.0,-999,-99.99,,,-99.99,,2013-05-01 05:32:00,
2013-04-30 22:42:00,51.0,-99.9,29.96,NW,314,6.0,9.0,-999,-99.99,,,-99.99,,2013-05-01 05:42:00,
2013-04-30 22:52:00,51.0,-99.9,29.96,NW,317,7.0,14.0,-999,-99.99,,,-99.99,,2013-05-01 05:52:00,
2013-04-30 23:02:00,51.0,-99.9,29.96,NW,310,5.0,10.0,-999,-99.99,,,-99.99,,2013-05-01 06:02:00,
2013-04-30 23:12:00,51.0,-99.9,29.97,South,182,2.0,7.0,-999,-99.99,,,-99.99,,2013-05-01 06:12:00,
2013-04-30 23:22:00,51.0,-99.9,29.97,NE,48,6.0,10.0,-999,-99.99,,,-99.99,,2013-05-01 06:22:00,
2013-04-30 23:32:00,51.0,-99.9,29.97,NE,49,5.0,8.0,-999,-99.99,,,-99.99,,2013-05-01 06:32:00,
2013-04-30 23:42:00,51.0,-99.9,29.97,WNW,291,5.0,9.0,-999,-99.99,,,-99.99,,2013-05-01 06:42:00,
2013-04-30 23:52:00,51.0,-99.9,29.97,NW,307,3.0,7.0,-999,-99.99,,,-99.99,,2013-05-01 06:52:00,